Coeur d'Alene, ID

11:10 PM PDT on May 29, 2017 (GMT -0700)
Coeur D'Alene

Weather History for KCOE - April, 2014

Change the Weather History Date:

Tuesday, April 8, 2014

  Actual Average Record
Temperature  
Mean Temperature 53 °F -  
Max Temperature 69 °F 50 °F 78 °F (2016)
Min Temperature 37 °F 31 °F 28 °F (2011)
Degree Days  
Heating Degree Days 12    
Growing Degree Days 3 (Base 50)    
Moisture  
Dew Point 38 °F    
Average Humidity 58    
Maximum Humidity 93    
Minimum Humidity 31    
Precipitation  
Precipitation 0.00 in - - ()
Sea Level Pressure  
Sea Level Pressure 30.03 in    
Wind  
Wind Speed 10 mph (South)    
Max Wind Speed 25 mph    
Max Gust Speed 32 mph    
Visibility 10 miles    
Events      
Averages and records for this station are not official NWS values.
T = Trace of Precipitation, MM = Missing Value Source: NWS Daily Summary

Daily Weather History Graph

Daily Weather History Graph

Search for Another Location

Airport or City:

Trip Planner

Search our weather history database for the weather conditions in past years. The results will help you decide how hot, cold, wet, or windy it might be!

Date:

Astronomy

Apr. 08, 2014 Rise Set
Actual Time 6:11 AM PDT 7:27 PM PDT
Civil Twilight 5:39 AM PDT 7:59 PM PDT
Nautical Twilight 5:01 AM PDT 8:37 PM PDT
Astronomical Twilight 4:20 AM PDT 9:19 PM PDT
Moon 1:00 PM PDT (4/8) 2:52 AM PDT (4/8)
Length of Visible Light 14h 19m
Length of Day
13h 15m
Waxing Gibbous, 63% of the Moon is Illuminated
Apr 8
Waxing Gibbous
Apr 15
Full
Apr 22
Last Quarter
Apr 28
New
May 6
First Quarter

Hourly Weather History & Observations

Time (PDT) Temp. Windchill Dew Point Humidity Pressure Visibility Wind Dir Wind Speed Gust Speed Precip Events Conditions
12:15 AM 42.8 °F 39.3 °F 37.4 °F 81% 30.15 in 10.0 mi NE 5.8 mph - N/A   Clear
12:35 AM 41.0 °F 36.4 °F 37.4 °F 87% 30.15 in 10.0 mi East 6.9 mph - N/A   Clear
12:55 AM 42.8 °F 39.3 °F 37.4 °F 81% 30.15 in 10.0 mi East 5.8 mph - N/A   Clear
1:15 AM 42.8 °F 39.3 °F 39.2 °F 87% 30.15 in 10.0 mi ESE 5.8 mph - N/A   Clear
1:35 AM 41.0 °F 35.8 °F 35.6 °F 81% 30.15 in 10.0 mi ENE 8.1 mph - N/A   Clear
1:55 AM 39.2 °F 34.2 °F 35.6 °F 87% 30.14 in 10.0 mi ENE 6.9 mph - N/A   Clear
2:15 AM 41.0 °F 35.8 °F 37.4 °F 87% 30.14 in 10.0 mi ESE 8.1 mph - N/A   Clear
2:35 AM 42.8 °F 38.6 °F 37.4 °F 81% 30.14 in 10.0 mi East 6.9 mph - N/A   Clear
2:55 AM 42.8 °F 38.0 °F 39.2 °F 87% 30.13 in 10.0 mi East 8.1 mph - N/A   Clear
3:15 AM 41.0 °F 35.8 °F 37.4 °F 87% 30.13 in 10.0 mi East 8.1 mph - N/A   Clear
3:35 AM 41.0 °F 37.1 °F 37.4 °F 87% 30.12 in 10.0 mi East 5.8 mph - N/A   Clear
3:55 AM 41.0 °F 36.4 °F 37.4 °F 87% 30.12 in 10.0 mi East 6.9 mph - N/A   Clear
4:15 AM 39.2 °F 34.2 °F 35.6 °F 87% 30.12 in 10.0 mi East 6.9 mph - N/A   Clear
4:35 AM 39.2 °F 35.0 °F 33.8 °F 81% 30.11 in 10.0 mi East 5.8 mph - N/A   Clear
4:55 AM 37.4 °F 32.1 °F 33.8 °F 87% 30.11 in 10.0 mi ENE 6.9 mph - N/A   Clear
5:15 AM 37.4 °F 31.4 °F 35.6 °F 93% 30.11 in 10.0 mi ENE 8.1 mph - N/A   Clear
5:35 AM 37.4 °F 32.1 °F 33.8 °F 87% 30.11 in 10.0 mi ENE 6.9 mph - N/A   Clear
5:55 AM 37.4 °F 32.1 °F 33.8 °F 87% 30.11 in 10.0 mi East 6.9 mph - N/A   Clear
6:15 AM 39.2 °F 34.2 °F 37.4 °F 93% 30.11 in 10.0 mi East 6.9 mph - N/A   Clear
6:35 AM 37.4 °F 33.8 °F 35.6 °F 93% 30.11 in 10.0 mi ENE 4.6 mph - N/A   Clear
6:55 AM 39.2 °F 35.9 °F 35.6 °F 87% 30.11 in 10.0 mi ENE 4.6 mph - N/A   Clear
7:15 AM 39.2 °F 35.0 °F 35.6 °F 87% 30.11 in 10.0 mi ENE 5.8 mph - N/A   Clear
7:35 AM 42.8 °F 40.1 °F 37.4 °F 81% 30.11 in 10.0 mi NNE 4.6 mph - N/A   Clear
7:55 AM 42.8 °F - 37.4 °F 81% 30.11 in 10.0 mi Calm Calm - N/A   Clear
8:15 AM 46.4 °F 41.9 °F 39.2 °F 76% 30.10 in 10.0 mi SSE 9.2 mph - N/A   Clear
8:35 AM 48.2 °F - 39.2 °F 71% 30.10 in 10.0 mi South 11.5 mph - N/A   Clear
8:55 AM 51.8 °F - 39.2 °F 62% 30.10 in 10.0 mi SSE 11.5 mph - N/A   Clear
9:15 AM 51.8 °F - 41.0 °F 67% 30.09 in 10.0 mi SSE 11.5 mph - N/A   Clear
9:35 AM 53.6 °F - 41.0 °F 62% 30.09 in 10.0 mi SSE 11.5 mph - N/A   Clear
9:55 AM 55.4 °F - 41.0 °F 58% 30.10 in 10.0 mi SSE 9.2 mph - N/A   Clear
10:15 AM 57.2 °F - 42.8 °F 59% 30.10 in 10.0 mi South 10.4 mph - N/A   Clear
10:35 AM 59.0 °F - 41.0 °F 51% 30.10 in 10.0 mi South 9.2 mph - N/A   Clear
10:55 AM 60.8 °F - 42.8 °F 52% 30.10 in 10.0 mi SSE 9.2 mph - N/A   Clear
11:15 AM 62.6 °F - 42.8 °F 48% 30.10 in 10.0 mi SSE 10.4 mph - N/A   Clear
11:35 AM 62.6 °F - 42.8 °F 48% 30.09 in 10.0 mi SSE 6.9 mph - N/A   Clear
11:55 AM 62.6 °F - 42.8 °F 48% 30.08 in 10.0 mi South 6.9 mph - N/A   Clear
12:15 PM 66.2 °F - 42.8 °F 43% 30.07 in 10.0 mi WSW 18.4 mph 23.0 mph N/A   Clear
12:35 PM 66.2 °F - 41.0 °F 40% 30.05 in 10.0 mi WSW 17.3 mph 24.2 mph N/A   Clear
12:55 PM 66.2 °F - 41.0 °F 40% 30.05 in 10.0 mi WSW 18.4 mph 23.0 mph N/A   Clear
1:15 PM 68.0 °F - 41.0 °F 37% 30.04 in 10.0 mi West 16.1 mph 23.0 mph N/A   Clear
1:35 PM 68.0 °F - 42.8 °F 40% 30.04 in 10.0 mi WSW 18.4 mph 21.9 mph N/A   Clear
1:55 PM 69.8 °F - 39.2 °F 33% 30.03 in 10.0 mi WSW 16.1 mph 28.8 mph N/A   Partly Cloudy
2:15 PM 68.0 °F - 37.4 °F 33% 30.02 in 10.0 mi West 17.3 mph 25.3 mph N/A   Mostly Cloudy
2:35 PM 69.8 °F - 39.2 °F 33% 30.01 in 10.0 mi WSW 16.1 mph 23.0 mph N/A   Mostly Cloudy
2:55 PM 69.8 °F - 39.2 °F 33% 30.00 in 10.0 mi WSW 18.4 mph 23.0 mph N/A   Partly Cloudy
3:15 PM 68.0 °F - 39.2 °F 35% 29.99 in 10.0 mi WSW 16.1 mph 21.9 mph N/A   Clear
3:35 PM 68.0 °F - 39.2 °F 35% 29.98 in 10.0 mi WSW 17.3 mph 24.2 mph N/A   Clear
3:55 PM 69.8 °F - 37.4 °F 31% 29.97 in 10.0 mi WSW 15.0 mph - N/A   Clear
4:15 PM 68.0 °F - 37.4 °F 33% 29.96 in 10.0 mi WSW 17.3 mph 20.7 mph N/A   Clear
4:35 PM 68.0 °F - 37.4 °F 33% 29.95 in 10.0 mi WSW 19.6 mph 25.3 mph N/A   Clear
4:55 PM 68.0 °F - 39.2 °F 35% 29.95 in 10.0 mi WSW 15.0 mph 25.3 mph N/A   Clear
5:15 PM 66.2 °F - 37.4 °F 35% 29.94 in 10.0 mi WSW 21.9 mph - N/A   Scattered Clouds
5:35 PM 66.2 °F - 39.2 °F 37% 29.93 in 10.0 mi WSW 19.6 mph - N/A   Mostly Cloudy
5:55 PM 66.2 °F - 39.2 °F 37% 29.92 in 10.0 mi SW 17.3 mph 21.9 mph N/A   Overcast
6:15 PM 64.4 °F - 39.2 °F 40% 29.92 in 10.0 mi SSW 15.0 mph - N/A   Overcast
6:35 PM 64.4 °F - 41.0 °F 42% 29.91 in 10.0 mi SSW 12.7 mph - N/A   Overcast
6:55 PM 62.6 °F - 41.0 °F 45% 29.90 in 10.0 mi SSW 15.0 mph - N/A   Overcast
7:15 PM 62.6 °F - 39.2 °F 42% 29.90 in 10.0 mi South 11.5 mph - N/A   Overcast
7:35 PM 62.6 °F - 39.2 °F 42% 29.88 in 10.0 mi South 11.5 mph - N/A   Overcast
7:55 PM 60.8 °F - 39.2 °F 45% 29.88 in 10.0 mi SSW 12.7 mph - N/A   Overcast
8:15 PM 60.8 °F - 39.2 °F 45% 29.88 in 10.0 mi South 10.4 mph - N/A   Partly Cloudy
8:35 PM 60.8 °F - 37.4 °F 42% 29.88 in 10.0 mi South 12.7 mph - N/A   Scattered Clouds
8:55 PM 59.0 °F - 37.4 °F 45% 29.89 in 10.0 mi SSW 9.2 mph - N/A   Mostly Cloudy
9:15 PM 59.0 °F - 37.4 °F 45% 29.88 in 10.0 mi SSW 13.8 mph 19.6 mph N/A   Scattered Clouds
9:35 PM 59.0 °F - 35.6 °F 42% 29.87 in 10.0 mi SW 13.8 mph 19.6 mph N/A   Partly Cloudy
9:55 PM 60.8 °F - 35.6 °F 39% 29.86 in 10.0 mi SSW 12.7 mph 24.2 mph N/A   Mostly Cloudy
10:15 PM 59.0 °F - 35.6 °F 42% 29.86 in 10.0 mi SSW 9.2 mph - N/A   Overcast
10:35 PM 60.8 °F - 37.4 °F 42% 29.86 in 10.0 mi WSW 23.0 mph 27.6 mph N/A   Overcast
10:55 PM 59.0 °F - 35.6 °F 42% 29.87 in 10.0 mi WSW 25.3 mph 32.2 mph N/A   Overcast
11:15 PM 57.2 °F - 37.4 °F 48% 29.87 in 10.0 mi WSW 17.3 mph - N/A   Overcast
11:35 PM 57.2 °F - 37.4 °F 48% 29.88 in 10.0 mi WSW 18.4 mph 23.0 mph N/A   Mostly Cloudy
11:55 PM 57.2 °F - 39.2 °F 51% 29.88 in 10.0 mi WSW 16.1 mph 24.2 mph N/A   Overcast